[[{"header":{"parameterUnit":"m.s-1","parameterCategory":1,"la1":30.2991,"la2":30.254,"lo1":-89.0895,"lo2":-89.0444,"dy":0.0017,"dx":0.0017,"nx":28,"ny":28,"refTime":"2025-02-13T03:00:00:Z","depth":0,"parameterNumber":2,"parameterNumberName":"U-component_of_WINDS"},"data":[0,0,0,0,0,0,0,0,0,0,0,0,0,0,0,0,0,0,0,0,0,0,0,0,0,0,0,0,0,0,0,0,0,0,0,0,0,0,0,0,0,0,0,0,0,0,0,0,0,0,0,0,0,0,0,0,0,0,-4.5426,-4.5427,0,-4.5501,-4.5502,-4.5503,-4.5385,-4.5381,-4.5377,-4.5373,-4.5452,-4.5458,-4.5464,0,0,0,0,0,0,0,0,0,0,0,0,0,-4.5181,-4.5186,-4.5426,-4.5427,-4.5428,-4.5501,-4.5502,-4.5503,-4.5386,-4.5381,-4.5376,-4.5371,-4.545,-4.5457,-4.5464,0,0,0,0,0,0,0,0,0,0,0,0,0,-4.5275,-4.5188,-4.5426,-4.5378,-4.5375,-4.5501,-4.5502,-4.5503,-4.5387,-4.5381,-4.5375,-4.5369,-4.5448,-4.5457,-4.5465,-4.5642,0,0,-4.5492,-4.5496,0,0,0,0,0,0,0,0,-4.527,-4.5284,-4.5384,-4.5382,-4.5378,-4.5427,-4.5445,-4.555,-4.5388,-4.5382,-4.5373,-4.5366,-4.5449,-4.5457,-4.5485,-4.5646,-4.5649,-4.5493,-4.5499,-4.5502,-4.5505,0,0,0,0,0,0,0,-4.5264,-4.5281,-4.5456,-4.5386,-4.5382,-4.5353,-4.536,-4.5464,-4.5449,-4.5382,-4.5374,-4.5384,-4.5446,-4.5477,-4.5486,-4.5651,-4.5493,-4.5501,-4.5506,-4.551,-4.596,-4.5966,0,0,0,0,0,0,-4.5263,-4.5276,-4.5453,-4.5458,-4.5308,-4.5363,-4.537,-4.5418,-4.5448,-4.5446,-4.539,-4.5379,-4.5465,-4.5476,-4.5488,-4.5698,-4.5502,-4.5511,-4.5516,-4.5953,-4.5961,-4.5969,0,0,0,0,0,0,-4.5258,-4.528,-4.545,-4.5365,-4.5384,-4.5373,-4.5428,-4.5422,-4.5453,-4.5453,-4.545,-4.5424,-4.546,-4.5476,-4.5605,-4.5699,-4.5515,-4.5523,-4.5946,-4.5956,-4.5965,-4.6119,0,0,0,0,0,0,-4.5252,-4.5279,-4.5346,-4.5367,-4.5389,-4.5566,-4.5434,-4.5428,-4.5468,-4.5455,-4.5484,-4.5483,-4.5457,-4.5592,-4.5614,-4.5708,-4.553,-4.5937,-4.595,-4.5962,-4.6105,-4.6133,-4.6156,0,0,0,0,0,-4.5243,-4.5387,-4.535,-4.5372,-4.5473,-4.5571,-4.5584,-4.555,-4.5476,-4.5544,-4.5544,-4.5482,-4.5685,-4.5606,-4.5629,-4.5728,-4.5931,-4.5946,-4.5961,-4.6094,-4.6127,-4.6155,0,0,0,0,0,0,-4.5378,-4.5389,-4.5348,-4.5503,-4.5537,-4.5551,-4.5636,-4.5587,-4.5643,-4.5628,-4.5584,-4.5592,-4.573,-4.5741,-4.5654,-4.59,-4.5796,-4.5816,-4.5889,-4.592,-4.5945,-4.5941,-4.5537,0,0,0,0,0,-4.5426,-4.5504,-4.5509,-4.5645,-4.5664,-4.5647,-4.5689,-4.566,-4.5694,-4.5708,-4.5717,-4.5753,-4.5824,-4.5872,-4.5938,-4.6105,-4.611,-4.6184,-4.6209,-4.623,-4.6249,-4.6339,-4.6372,-4.6018,-4.6018,-4.6017,0,0,-4.5525,-4.5541,-4.5593,-4.5673,-4.5696,-4.5779,-4.566,-4.5753,-4.5815,-4.5722,-4.5844,-4.5852,-4.5889,-4.6038,-4.6104,-4.6052,-4.6348,-4.625,-4.6266,-4.6274,-4.6357,-4.6391,-4.6421,-4.6028,-4.6026,-4.6024,0,0,-4.5749,-4.5768,-4.5884,-4.5909,-4.5945,-4.5932,-4.596,-4.5982,-4.5983,-4.6105,-4.6037,-4.6109,-4.6233,-4.6262,-4.6294,-4.6527,-4.6473,-4.6549,-4.6684,-4.6771,-4.6799,-4.6823,-4.6908,-4.6938,-4.6567,-4.6568,-4.6568,0,-4.5869,-4.5991,-4.5949,-4.6047,-4.6084,-4.6003,-4.6119,-4.6146,-4.6202,-4.623,-4.617,-4.6323,-4.6342,-4.6497,-4.6554,-4.6581,-4.6612,-4.6547,-4.6798,-4.6822,-4.6845,-4.6924,-4.6956,-4.6577,-4.6576,-4.6575,-4.6574,0,-4.6136,-4.6222,-4.6311,-4.6366,-4.6413,-4.652,-4.6495,-4.6547,-4.6513,-4.6507,-4.6632,-4.6651,-4.6719,-4.6753,-4.6721,-4.6904,-4.687,-4.6805,-4.6699,-4.6888,-4.6963,-4.6993,-4.659,-4.6587,-4.6584,-4.6582,0,0,-4.645,-4.648,-4.6514,-4.6538,-4.657,-4.6636,-4.6739,-4.6804,-4.6851,-4.6891,-4.6977,-4.7083,-4.7022,-4.7058,-4.7028,-4.7105,-4.7289,-4.703,-4.703,-4.7079,-4.7492,-4.7542,-4.7578,-4.7252,-4.7258,-4.7262,-4.7489,0,-4.6674,-4.6851,-4.6816,-4.699,-4.7068,-4.6991,-4.708,-4.7111,-4.7107,-4.7173,-4.7169,-4.7245,-4.7159,-4.718,-4.7252,-4.7252,-4.7372,-4.7234,-4.7333,-4.7337,-4.7328,-4.7617,-4.767,-4.7884,-4.7518,-4.7523,-4.7526,0,-4.696,-4.7011,-4.7192,-4.7212,-4.7244,-4.7325,-4.7382,-4.7446,-4.7478,-4.747,-4.7509,-4.7464,-4.7566,-4.7457,-4.7598,-4.7505,-4.7543,-4.7548,-4.7555,-4.7565,-4.7445,-4.7636,-4.7951,-4.7984,-4.7571,-4.7568,-4.7564,0,-4.7173,-4.7286,-4.7409,-4.7432,-4.7458,-4.7516,-4.753,-4.7556,-4.7597,-4.7647,-4.7674,-4.7735,-4.777,-4.7818,-4.7791,-4.7714,-4.7937,-4.7825,-4.7934,-4.7935,-4.7986,-4.7984,-4.8314,-4.8008,-4.8007,-4.8007,-4.8006,0,-4.7428,-4.7542,-4.7505,-4.7581,-4.7706,-4.7664,-4.779,-4.7794,-4.7818,-4.7893,-4.7829,-4.7902,-4.7861,-4.793,-4.7909,-4.8029,-4.8045,-4.8042,-4.8035,-4.8049,-4.8049,-4.8074,-4.8059,-4.8015,-4.8013,-4.8012,-4.801,0,-4.7688,-4.7667,-4.7796,-4.7809,-4.7815,-4.7907,-4.7918,-4.7989,-4.798,-4.8076,-4.8096,-4.8082,-4.816,-4.8137,-4.8222,-4.8208,-4.836,-4.8334,-4.835,-4.8344,-4.8454,-4.8445,-4.8813,-4.8859,-4.8522,-4.8526,-4.8528,0,-4.7853,-4.7939,-4.7961,-4.8006,-4.8025,-4.8099,-4.8141,-4.8102,-4.8148,-4.8191,-4.8257,-4.8329,-4.8385,-4.8513,-4.851,-4.8574,-4.855,-4.8675,-4.856,-4.857,-4.8554,-4.855,-4.8559,-4.8699,-4.8702,-4.8706,-4.8708,0,-4.8149,-4.8134,-4.8197,-4.8256,-4.8307,-4.8352,-4.8391,-4.8432,-4.8396,-4.8451,-4.853,-4.8573,-4.8658,-4.8731,-4.8789,-4.8803,-4.8751,-4.8744,-4.8773,-4.8788,-4.8795,-4.8794,-4.8414,-4.8736,-4.8734,-4.8731,-4.873,-4.8729,-4.8368,-4.844,-4.8467,-4.8539,-4.8563,-4.8601,-4.8668,-4.8667,-4.8731,-4.8798,-4.877,-4.8861,-4.889,-4.8962,-4.8983,-4.9054,-4.9006,-4.9048,-4.9058,-4.907,-4.9084,-4.8782,-4.9064,-4.9063,-4.9062,-4.9062,-4.9061,0,-4.8661,-4.8674,-4.874,-4.8796,-4.8853,-4.8796,-4.8836,-4.8887,-4.8968,-4.8998,-4.9054,-4.9144,-4.9214,-4.9216,-4.9281,-4.9337,-4.9315,-4.9356,-4.9352,-4.9357,-4.9123,-4.9092,-4.9373,-4.9373,-4.9373,-4.9373,-4.9373,-4.9373,-4.8821,-4.8941,-4.893,-4.9061,-4.9073,-4.9161,-4.9189,-4.9223,-4.9247,-4.9351,-4.9408,-4.9408,-4.9428,-4.9493,-4.9555,-4.9553,-4.9581,-4.9632,-4.9622,-4.9404,-4.9373,-4.9344,-4.9315,-4.9638,-4.9638,-4.985,-4.9852,-4.9854]},{"header":{"parameterUnit":"m.s-1","parameterCategory":1,"la1":30.2991,"la2":30.254,"lo1":-89.0895,"lo2":-89.0444,"dy":0.0017,"dx":0.0017,"nx":28,"ny":28,"refTime":"2025-02-13T03:00:00:Z","depth":0,"parameterNumber":3,"parameterNumberName":"V-component_of_WINDS"},"data":[0,0,0,0,0,0,0,0,0,0,0,0,0,0,0,0,0,0,0,0,0,0,0,0,0,0,0,0,0,0,0,0,0,0,0,0,0,0,0,0,0,0,0,0,0,0,0,0,0,0,0,0,0,0,0,0,0,0,-6.0309,-6.0309,0,-6.0376,-6.0377,-6.0378,-6.0305,-6.0302,-6.0299,-6.0297,-6.0362,-6.0366,-6.037,0,0,0,0,0,0,0,0,0,0,0,0,0,-6.0111,-6.0115,-6.0308,-6.0309,-6.031,-6.0376,-6.0377,-6.0378,-6.0305,-6.0302,-6.0299,-6.0295,-6.036,-6.0366,-6.0371,0,0,0,0,0,0,0,0,0,0,0,0,0,-6.0189,-6.0116,-6.0308,-6.0282,-6.028,-6.0376,-6.0377,-6.0378,-6.0306,-6.0302,-6.0298,-6.0294,-6.0359,-6.0365,-6.0371,-6.0495,0,0,-6.0391,-6.0394,0,0,0,0,0,0,0,0,-6.0185,-6.0197,-6.0285,-6.0284,-6.0282,-6.0328,-6.0331,-6.0417,-6.0307,-6.0296,-6.0297,-6.0292,-6.0354,-6.036,-6.0382,-6.0498,-6.0501,-6.0392,-6.0396,-6.0399,-6.04,0,0,0,0,0,0,0,-6.018,-6.0193,-6.0335,-6.0286,-6.0285,-6.0265,-6.0272,-6.0347,-6.0347,-6.0297,-6.0292,-6.0301,-6.0352,-6.0376,-6.0383,-6.0502,-6.0392,-6.0397,-6.0401,-6.0404,-6.0719,-6.0724,0,0,0,0,0,0,-6.0178,-6.0189,-6.0333,-6.0337,-6.0223,-6.0272,-6.0279,-6.0317,-6.0346,-6.0347,-6.0304,-6.0297,-6.0367,-6.0376,-6.0385,-6.053,-6.0399,-6.0405,-6.0408,-6.0715,-6.072,-6.0725,0,0,0,0,0,0,-6.0174,-6.0192,-6.033,-6.0262,-6.0278,-6.028,-6.0323,-6.0321,-6.0345,-6.0352,-6.0351,-6.0329,-6.0364,-6.0376,-6.0468,-6.0531,-6.0408,-6.0413,-6.071,-6.0717,-6.0723,-6.0822,0,0,0,0,0,0,-6.0169,-6.0191,-6.0239,-6.0264,-6.0282,-6.0414,-6.0327,-6.0325,-6.0357,-6.0348,-6.0375,-6.0376,-6.0362,-6.0459,-6.0474,-6.0538,-6.0419,-6.0704,-6.0713,-6.0721,-6.0813,-6.0831,-6.0847,0,0,0,0,0,-6.0162,-6.0264,-6.0242,-6.026,-6.0343,-6.0418,-6.0428,-6.0411,-6.0362,-6.041,-6.0414,-6.0375,-6.0522,-6.0469,-6.0486,-6.0552,-6.07,-6.071,-6.072,-6.0805,-6.0827,-6.0846,0,0,0,0,0,0,-6.0246,-6.0267,-6.0243,-6.0356,-6.0386,-6.0405,-6.0465,-6.0436,-6.0479,-6.0469,-6.0445,-6.0451,-6.0549,-6.0559,-6.05,-6.0672,-6.0602,-6.0616,-6.0661,-6.0683,-6.0699,-6.0694,-6.0424,0,0,0,0,0,-6.0277,-6.0338,-6.0352,-6.0451,-6.0467,-6.0464,-6.0496,-6.048,-6.0509,-6.0521,-6.0532,-6.0561,-6.0613,-6.0649,-6.0697,-6.0814,-6.0818,-6.0868,-6.0885,-6.0898,-6.0911,-6.0971,-6.0993,-6.0758,-6.0758,-6.0758,0,0,-6.0343,-6.0362,-6.0402,-6.0468,-6.0489,-6.0551,-6.0475,-6.0544,-6.0588,-6.0531,-6.0619,-6.0628,-6.0658,-6.0763,-6.0809,-6.0774,-6.0976,-6.0911,-6.0922,-6.0927,-6.0984,-6.1006,-6.1026,-6.0765,-6.0764,-6.0763,0,0,-6.0495,-6.0516,-6.06,-6.0623,-6.0656,-6.0653,-6.0673,-6.0697,-6.0701,-6.0789,-6.0747,-6.0798,-6.089,-6.0913,-6.0936,-6.1094,-6.1059,-6.1111,-6.1199,-6.1258,-6.1276,-6.1293,-6.1348,-6.1368,-6.1123,-6.1123,-6.1123,0,-6.0572,-6.0665,-6.0646,-6.0718,-6.0747,-6.0699,-6.0782,-6.0804,-6.0852,-6.0872,-6.0833,-6.0945,-6.0962,-6.1071,-6.1109,-6.113,-6.1151,-6.1108,-6.1276,-6.1292,-6.1307,-6.1359,-6.138,-6.1129,-6.1128,-6.1128,-6.1127,0,-6.0758,-6.0823,-6.0886,-6.0933,-6.097,-6.1047,-6.1037,-6.1076,-6.1056,-6.1057,-6.1145,-6.1164,-6.1215,-6.1239,-6.1221,-6.1344,-6.1321,-6.128,-6.1209,-6.1335,-6.1384,-6.1404,-6.1138,-6.1136,-6.1134,-6.1132,0,0,-6.0965,-6.1,-6.1024,-6.1044,-6.1077,-6.1125,-6.1199,-6.1249,-6.1282,-6.1316,-6.1376,-6.1453,-6.1414,-6.1441,-6.1424,-6.1476,-6.1598,-6.1427,-6.1428,-6.1458,-6.1733,-6.1764,-6.1788,-6.1575,-6.1579,-6.1582,-6.173,0,-6.1116,-6.1246,-6.123,-6.1353,-6.1411,-6.1365,-6.1429,-6.1455,-6.1456,-6.1504,-6.1505,-6.156,-6.1505,-6.1521,-6.157,-6.1573,-6.1653,-6.1562,-6.1629,-6.1631,-6.1622,-6.1813,-6.1847,-6.1986,-6.1749,-6.1753,-6.1755,0,-6.1311,-6.1352,-6.1482,-6.1503,-6.1527,-6.1585,-6.1629,-6.1676,-6.1703,-6.17,-6.173,-6.1704,-6.1775,-6.1704,-6.18,-6.1739,-6.1765,-6.177,-6.1775,-6.178,-6.1701,-6.1823,-6.203,-6.2051,-6.1785,-6.1782,-6.178,0,-6.1448,-6.1535,-6.1623,-6.1642,-6.167,-6.1712,-6.1725,-6.1748,-6.1779,-6.1817,-6.1836,-6.1882,-6.1906,-6.1941,-6.1927,-6.1876,-6.2026,-6.1954,-6.2024,-6.2024,-6.2057,-6.2055,-6.2271,-6.2076,-6.2075,-6.2075,-6.2074,0,-6.1618,-6.1699,-6.1685,-6.1739,-6.1827,-6.1807,-6.1894,-6.1901,-6.1922,-6.1975,-6.1938,-6.1988,-6.1966,-6.2014,-6.2003,-6.2084,-6.2096,-6.2094,-6.209,-6.2098,-6.2098,-6.2114,-6.2103,-6.208,-6.2079,-6.2078,-6.2077,0,-6.1786,-6.178,-6.1873,-6.1892,-6.1898,-6.1962,-6.1977,-6.2027,-6.2025,-6.2093,-6.2107,-6.2104,-6.2159,-6.2148,-6.2208,-6.22,-6.2301,-6.2286,-6.2293,-6.2289,-6.2359,-6.2352,-6.2593,-6.2622,-6.2408,-6.241,-6.2412,0,-6.1895,-6.1956,-6.1981,-6.2014,-6.2031,-6.2085,-6.2117,-6.2098,-6.2132,-6.2166,-6.2211,-6.2263,-6.2303,-6.2392,-6.2394,-6.2439,-6.2424,-6.2505,-6.243,-6.2435,-6.2423,-6.242,-6.2425,-6.2519,-6.2522,-6.2524,-6.2525,0,-6.2088,-6.2082,-6.213,-6.2176,-6.2214,-6.2249,-6.2281,-6.231,-6.2293,-6.2333,-6.2389,-6.242,-6.2481,-6.2532,-6.2574,-6.2585,-6.2552,-6.2549,-6.2567,-6.2575,-6.2576,-6.2575,-6.2332,-6.2543,-6.2542,-6.254,-6.2539,-6.2539,-6.2229,-6.2281,-6.2306,-6.2359,-6.2381,-6.241,-6.2458,-6.2462,-6.2509,-6.2558,-6.2543,-6.2606,-6.2629,-6.2682,-6.2698,-6.2746,-6.2715,-6.2742,-6.2749,-6.2756,-6.2764,-6.2569,-6.2753,-6.2753,-6.2752,-6.2752,-6.2752,0,-6.242,-6.2434,-6.2483,-6.2528,-6.2569,-6.2536,-6.2568,-6.2604,-6.2661,-6.2686,-6.2726,-6.2789,-6.2838,-6.2843,-6.2889,-6.2926,-6.2912,-6.2938,-6.2935,-6.2938,-6.2789,-6.2768,-6.2949,-6.2949,-6.2949,-6.2949,-6.2949,-6.2949,-6.2524,-6.2608,-6.2605,-6.2699,-6.2711,-6.2774,-6.2795,-6.2821,-6.2841,-6.2913,-6.2954,-6.2958,-6.2974,-6.302,-6.3062,-6.3063,-6.308,-6.3113,-6.3107,-6.2968,-6.2948,-6.293,-6.291,-6.3117,-6.3117,-6.3251,-6.3252,-6.3253]}]]